Temp
4 5 5 6 6 5 3 5 5 7 6 2 -0 -1 -1 1 1 0 -0 -1 -1 -2 -2 -2 -2 -3 -3 -3 -2 -2 -2 -2 -2 -2 -2 -2 -2 -3 -3 -3 -4 -4 -4 -4
4 4 4 4 4 4 4 4 5 5 4 -0 -1 -1 -1 0 -1 -1 -2 -3 -3 -3 -3 -3 -2 -2 -2 -2 -2 -2 -2 -2 -2 -3 -3 -3 -3 -3 -4 -4 -4 -5 -5 -5
5 5 3 3 2 2 -2 0 2 3 -1 -2 -2 -1 -1 -1 -2 -3 -3 -4 -3 -3 -2 -3 -3 -3 -3 -3 -3 -3 -3 -3 -3 -3 -4 -4 -5 -6 -6 -7 -7 -7 -7 -8
4 3 4 0 -3 -4 -1 -3 -2 -2 -2 -2 -1 -1 -2 -2 -3 -3 -3 -3 -3 -3 -3 -3 -3 -3 -3 -3 -3 -3 -4 -4 -5 -5 -6 -7 -7 -8 -8 -9 -10 -9 -9 -9
3 4 3 2 0 -0 -1 -1 -2 -3 -4 -2 -1 -2 -3 -3 -3 -3 -3 -3 -3 -3 -3 -4 -3 -3 -3 -3 -4 -4 -5 -5 -6 -7 -7 -7 -8 -9 -10 -10 -10 -10 -10 -10
2 3 3 -1 1 1 -0 -1 -2 -2 -4 -3 -1 -4 -5 -2 -3 -3 -3 -3 -3 -4 -4 -4 -4 -4 -4 -4 -5 -5 -6 -7 -7 -7 -9 -9 -10 -10 -11 -11 -11 -11 -11 -11
1 2 1 0 1 -0 -0 -3 -3 -2 -2 -2 -6 -3 -3 -3 -3 -3 -3 -4 -4 -5 -5 -5 -5 -5 -5 -5 -6 -7 -7 -8 -8 -9 -10 -10 -11 -11 -11 -12 -11 -11 -11 -11
-2 -2 0 -1 -0 -0 -2 -2 -2 -2 -3 -3 -3 -3 -3 -3 -4 -4 -4 -4 -5 -4 -5 -5 -6 -6 -6 -6 -7 -8 -8 -9 -10 -10 -11 -11 -12 -12 -12 -12 -12 -11 -11 -11
0 0 -1 -2 -1 -1 -1 -2 -2 -3 -3 -3 -3 -3 -3 -4 -5 -5 -5 -5 -5 -5 -5 -6 -6 -7 -7 -7 -8 -9 -10 -10 -11 -11 -11 -12 -12 -12 -12 -11 -11 -11 -11 -11
-1 -2 -2 -3 -2 -1 -2 -2 -2 -2 -3 -3 -4 -4 -4 -5 -5 -5 -5 -6 -6 -6 -6 -7 -7 -7 -8 -9 -10 -10 -11 -11 -11 -11 -11 -12 -11 -11 -11 -11 -11 -11 -11 -10
-2 -2 -3 -3 -2 -2 -2 -2 -3 -3 -3 -4 -4 -5 -5 -6 -6 -6 -6 -7 -7 -7 -7 -8 -8 -8 -9 -10 -10 -11 -11 -11 -11 -11 -11 -11 -11 -11 -11 -11 -12 -11 -10 -10
-2 -3 -3 -2 -2 -2 -2 -3 -3 -4 -4 -5 -5 -6 -6 -7 -7 -7 -7 -8 -8 -8 -8 -8 -8 -8 -9 -10 -11 -12 -12 -11 -11 -11 -11 -11 -11 -11 -11 -12 -11 -11 -11 -11
-2 -2 -1 -1 -2 -2 -3 -4 -5 -5 -5 -5 -6 -6 -7 -7 -7 -7 -8 -8 -8 -9 -9 -9 -9 -9 -10 -11 -12 -12 -12 -11 -11 -11 -12 -11 -11 -12 -12 -11 -11 -11 -12 -11
-1 -1 -2 -2 -3 -3 -4 -5 -4 -5 -6 -6 -7 -7 -7 -8 -8 -8 -8 -9 -9 -9 -10 -10 -10 -10 -11 -12 -12 -12 -12 -12 -12 -12 -11 -11 -12 -12 -12 -12 -12 -12 -11 -12
-2 -2 -3 -4 -4 -4 -4 -4 -5 -6 -6 -7 -8 -8 -9 -8 -9 -9 -10 -10 -10 -10 -10 -11 -11 -11 -11 -12 -12 -12 -12 -12 -12 -12 -12 -11 -12 -12 -12 -12 -12 -12 -12 -11
-3 -3 -4 -3 -4 -4 -5 -5 -6 -7 -8 -9 -9 -10 -10 -10 -10 -10 -11 -11 -11 -11 -11 -12 -12 -12 -12 -12 -13 -12 -12 -12 -12 -12 -12 -12 -12 -12 -13 -13 -12 -12 -12 -12
-4 -4 -3 -3 -3 -5 -7 -8 -9 -10 -10 -11 -11 -11 -11 -11 -11 -11 -11 -11 -11 -12 -12 -12 -12 -12 -13 -13 -13 -13 -12 -12 -12 -12 -12 -12 -12 -13 -13 -13 -13 -12 -12 -12
-5 -4 -5 -5 -6 -7 -9 -10 -11 -11 -11 -11 -12 -12 -12 -12 -12 -12 -12 -12 -12 -12 -12 -12 -13 -14 -14 -14 -13 -13 -12 -12 -12 -12 -12 -12 -12 -13 -13 -13 -12 -12 -12 -12
-5 -6 -6 -7 -9 -10 -10 -11 -12 -12 -13 -13 -13 -13 -13 -13 -13 -13 -13 -13 -12 -13 -12 -13 -14 -14 -14 -13 -14 -13 -12 -12 -12 -12 -12 -12 -13 -13 -13 -12 -12 -12 -12 -12
-8 -8 -9 -10 -11 -11 -12 -13 -13 -13 -13 -13 -13 -14 -14 -14 -14 -14 -14 -14 -13 -14 -15 -15 -15 -14 -13 -13 -13 -13 -13 -12 -12 -12 -12 -13 -13 -13 -13 -12 -12 -12 -12 -12
-9 -10 -10 -11 -12 -14 -15 -14 -14 -14 -14 -14 -13 -14 -14 -14 -15 -15 -14 -14 -14 -14 -16 -16 -16 -15 -14 -14 -13 -13 -13 -13 -13 -13 -13 -13 -13 -13 -13 -12 -12 -12 -12 -12
-10 -11 -12 -13 -13 -13 -14 -14 -14 -15 -15 -15 -15 -15 -15 -15 -15 -15 -16 -16 -15 -17 -17 -17 -16 -15 -15 -14 -14 -14 -13 -13 -13 -13 -13 -13 -13 -13 -13 -13 -13 -13 -12 -12
-12 -13 -13 -13 -13 -14 -15 -15 -16 -16 -16 -16 -17 -17 -17 -17 -17 -17 -16 -17 -18 -18 -18 -17 -17 -16 -15 -15 -15 -15 -14 -14 -14 -14 -13 -13 -13 -13 -13 -13 -13 -13 -13 -12
-15 -15 -15 -16 -16 -16 -16 -17 -17 -17 -17 -18 -18 -18 -19 -18 -18 -18 -19 -19 -18 -18 -18 -17 -17 -17 -16 -16 -15 -15 -14 -14 -14 -14 -14 -13 -13 -13 -13 -13 -13 -13 -13 -13
-17 -18 -18 -18 -18 -19 -18 -19 -19 -19 -19 -20 -19 -19 -20 -20 -21 -20 -20 -19 -18 -19 -18 -17 -17 -17 -15 -15 -15 -15 -15 -14 -14 -14 -14 -13 -13 -13 -13 -13 -13 -13 -13 -13
-18 -19 -19 -19 -20 -20 -20 -20 -21 -21 -21 -21 -20 -20 -21 -21 -20 -20 -20 -19 -19 -19 -18 -18 -17 -17 -17 -16 -15 -15 -15 -15 -15 -14 -14 -13 -13 -13 -13 -13 -13 -13 -13 -13
-19 -20 -20 -20 -20 -21 -21 -22 -22 -21 -22 -21 -21 -22 -22 -21 -20 -20 -20 -20 -20 -19 -19 -19 -18 -18 -17 -17 -16 -15 -15 -15 -15 -14 -14 -14 -13 -13 -13 -13 -13 -13 -13 -13
Height
1508 1506 1505 1500 1500 1505 1508 1497 1499 1483 1489 1499 1504 1504 1504 1501 1500 1500 1498 1497 1496 1496 1497 1497 1497 1497 1497 1496 1495 1493 1490 1487 1484 1481 1477 1474 1472 1469 1467 1463 1461 1458 1455 1454
1501 1501 1500 1495 1497 1494 1491 1489 1485 1486 1487 1500 1502 1502 1501 1499 1498 1497 1497 1497 1496 1496 1495 1494 1494 1495 1493 1491 1491 1488 1485 1481 1478 1474 1470 1467 1464 1460 1458 1454 1451 1450 1446 1444
1486 1493 1498 1492 1485 1484 1495 1491 1489 1487 1499 1501 1499 1498 1498 1496 1495 1496 1497 1497 1497 1496 1496 1496 1494 1492 1490 1487 1483 1481 1476 1473 1470 1466 1462 1458 1455 1452 1448 1444 1441 1438 1435 1434
1492 1498 1489 1488 1487 1486 1489 1497 1495 1497 1499 1498 1497 1496 1495 1495 1495 1496 1496 1496 1495 1494 1493 1492 1490 1488 1485 1481 1478 1473 1469 1465 1461 1457 1453 1449 1446 1442 1438 1435 1431 1428 1425 1423
1493 1487 1481 1488 1488 1489 1491 1496 1496 1498 1497 1496 1494 1494 1497 1497 1497 1496 1495 1494 1493 1492 1490 1488 1485 1482 1479 1474 1469 1465 1461 1457 1453 1449 1445 1441 1437 1434 1431 1426 1423 1419 1416 1413
1491 1487 1482 1492 1486 1487 1488 1496 1498 1497 1496 1494 1491 1499 1498 1496 1495 1495 1493 1491 1490 1489 1487 1484 1480 1476 1471 1467 1462 1457 1453 1449 1445 1441 1437 1432 1429 1426 1422 1419 1415 1412 1408 1406
1491 1485 1483 1484 1486 1487 1490 1501 1496 1495 1496 1496 1496 1496 1496 1495 1494 1492 1490 1488 1486 1484 1481 1477 1473 1468 1464 1459 1455 1450 1446 1442 1438 1434 1429 1426 1421 1418 1414 1411 1407 1404 1400 1397
1502 1504 1488 1483 1485 1489 1493 1493 1494 1495 1496 1495 1495 1493 1492 1491 1489 1487 1485 1483 1481 1479 1476 1472 1467 1462 1458 1454 1449 1444 1440 1435 1431 1427 1423 1419 1416 1412 1409 1405 1401 1397 1393 1389
1490 1483 1484 1484 1484 1488 1492 1494 1495 1494 1492 1491 1491 1490 1488 1486 1486 1484 1481 1479 1476 1473 1470 1466 1462 1457 1452 1447 1442 1437 1433 1429 1425 1421 1418 1415 1411 1408 1404 1401 1397 1392 1389 1385
1485 1486 1486 1486 1488 1490 1490 1493 1495 1493 1490 1490 1488 1487 1485 1483 1481 1479 1477 1473 1470 1467 1462 1458 1455 1451 1446 1440 1435 1431 1427 1424 1420 1417 1413 1410 1407 1404 1399 1396 1392 1387 1383 1379
1485 1486 1488 1489 1489 1490 1491 1492 1492 1491 1489 1487 1485 1484 1481 1479 1477 1475 1472 1469 1464 1460 1456 1453 1449 1445 1440 1435 1430 1427 1423 1420 1416 1412 1408 1405 1402 1399 1395 1392 1388 1383 1379 1375
1480 1480 1482 1485 1488 1490 1490 1490 1489 1488 1486 1484 1482 1479 1476 1475 1473 1470 1466 1462 1458 1455 1451 1447 1443 1439 1434 1431 1427 1423 1419 1416 1413 1408 1405 1401 1398 1393 1391 1387 1384 1379 1375 1370
1478 1480 1482 1484 1487 1488 1488 1487 1486 1484 1481 1479 1477 1475 1473 1470 1467 1464 1461 1457 1453 1449 1445 1441 1437 1433 1429 1426 1423 1420 1416 1413 1409 1405 1401 1398 1394 1389 1383 1378 1376 1372 1368 1364
1476 1478 1481 1484 1485 1485 1484 1483 1480 1479 1477 1475 1473 1471 1468 1465 1462 1459 1455 1451 1447 1444 1440 1435 1431 1428 1424 1421 1418 1416 1413 1410 1406 1402 1398 1394 1390 1386 1381 1375 1369 1365 1362 1358
1475 1477 1478 1481 1482 1480 1478 1477 1475 1473 1472 1470 1468 1466 1463 1459 1456 1452 1449 1445 1441 1438 1434 1430 1426 1423 1420 1416 1413 1411 1408 1405 1402 1398 1395 1392 1387 1381 1376 1372 1367 1362 1357 1352
1475 1475 1477 1478 1476 1474 1473 1472 1470 1469 1467 1465 1463 1461 1458 1455 1451 1447 1444 1440 1436 1431 1428 1424 1421 1417 1414 1411 1408 1406 1404 1402 1399 1395 1391 1387 1382 1377 1373 1368 1364 1359 1354 1349
1473 1474 1474 1472 1470 1469 1468 1468 1467 1465 1463 1461 1459 1456 1453 1449 1445 1442 1438 1435 1432 1428 1424 1419 1415 1412 1409 1406 1403 1401 1399 1396 1394 1391 1387 1382 1377 1373 1369 1365 1360 1356 1351 1346
1471 1471 1469 1468 1467 1466 1465 1464 1463 1461 1459 1456 1453 1451 1447 1444 1439 1436 1432 1429 1425 1422 1419 1414 1410 1406 1404 1402 1399 1396 1394 1391 1388 1385 1382 1377 1373 1369 1365 1361 1357 1352 1347 1342
1467 1467 1467 1465 1463 1461 1460 1460 1457 1456 1453 1451 1448 1445 1442 1439 1436 1432 1428 1424 1420 1415 1412 1409 1405 1402 1399 1396 1393 1390 1389 1385 1383 1380 1377 1372 1369 1365 1361 1358 1353 1349 1344 1339
1462 1462 1462 1461 1460 1457 1455 1455 1451 1450 1448 1445 1443 1440 1437 1435 1431 1427 1423 1419 1417 1413 1408 1405 1402 1398 1394 1390 1388 1386 1384 1381 1378 1375 1371 1367 1364 1361 1358 1354 1350 1346 1342 1337
1458 1457 1456 1455 1454 1453 1452 1448 1446 1445 1443 1441 1437 1434 1431 1428 1425 1422 1417 1412 1411 1407 1405 1402 1397 1393 1389 1386 1384 1382 1378 1375 1373 1369 1365 1362 1360 1357 1354 1351 1347 1343 1338 1334
1451 1450 1450 1449 1449 1447 1446 1444 1442 1440 1438 1436 1433 1429 1425 1422 1419 1416 1414 1411 1404 1402 1399 1395 1391 1387 1385 1383 1379 1375 1373 1370 1367 1364 1360 1358 1355 1352 1350 1347 1343 1339 1335 1331
1446 1446 1445 1443 1442 1440 1440 1439 1438 1436 1433 1431 1427 1424 1421 1416 1413 1409 1403 1403 1400 1396 1393 1388 1385 1382 1379 1375 1371 1368 1366 1363 1361 1358 1356 1353 1351 1349 1346 1343 1339 1336 1332 1328
1445 1443 1441 1439 1436 1434 1434 1434 1432 1430 1427 1426 1424 1420 1416 1410 1407 1405 1401 1396 1393 1389 1385 1380 1377 1375 1372 1366 1363 1361 1360 1357 1355 1353 1351 1349 1347 1345 1342 1339 1335 1332 1328 1324
1441 1441 1440 1438 1436 1433 1430 1428 1426 1424 1422 1419 1418 1415 1411 1408 1404 1398 1394 1390 1385 1381 1377 1374 1370 1366 1362 1359 1357 1355 1354 1352 1350 1348 1345 1344 1342 1340 1338 1335 1332 1328 1324 1321
1441 1438 1437 1436 1435 1432 1430 1426 1423 1421 1417 1414 1412 1409 1406 1402 1398 1394 1390 1385 1380 1376 1371 1367 1363 1359 1355 1353 1351 1350 1348 1347 1345 1343 1341 1339 1338 1336 1334 1332 1329 1325 1321 1317
1440 1440 1436 1432 1429 1428 1427 1424 1420 1417 1415 1411 1408 1406 1402 1397 1393 1389 1384 1380 1376 1371 1366 1361 1357 1353 1350 1347 1345 1345 1343 1341 1340 1338 1337 1335 1334 1333 1330 1328 1325 1322 1318 1314
Wind_Speed
7 9 7 14 13 11 15 18 15 17 13 3 4 2 1 6 8 6 5 2 3 3 4 7 10 13 14 13 14 17 20 23 25 26 27 28 29 30 30 30 30 31 32 33
5 9 13 19 11 15 18 15 16 16 12 4 1 6 11 13 9 5 2 5 4 3 7 10 10 12 15 18 21 23 26 28 28 28 29 29 30 30 30 30 31 33 33 34
14 3 5 7 12 13 2 1 1 3 2 1 2 3 11 12 7 1 4 4 6 8 6 8 12 17 21 23 25 28 30 29 29 29 30 30 30 31 33 35 35 35 35 35
7 2 9 4 2 3 11 2 6 5 1 2 5 10 6 7 7 5 6 5 3 5 7 10 16 22 27 30 32 32 30 30 29 29 30 32 32 33 33 31 34 35 37 36
3 5 2 2 1 2 4 3 2 2 2 5 10 1 8 6 6 5 1 6 9 11 14 19 24 27 31 33 33 32 31 31 31 31 33 33 34 34 31 32 35 36 35 34
1 4 5 3 3 3 2 3 4 6 2 4 5 3 2 1 4 6 8 12 12 15 17 22 25 29 32 32 31 32 33 33 34 33 32 34 30 30 33 33 33 31 33 34
4 3 3 3 1 2 3 3 5 6 4 6 2 0 5 11 12 14 16 15 14 17 21 26 29 30 31 31 32 32 33 33 32 30 29 29 29 27 28 28 27 29 30 29
0 2 7 2 2 2 4 6 6 6 4 7 8 9 13 14 15 15 18 18 18 22 26 28 27 29 31 31 31 31 31 30 28 26 25 23 21 23 24 24 25 26 26 26
5 2 4 2 14 13 10 7 2 1 3 8 13 15 16 17 14 18 17 19 22 26 29 26 26 27 30 30 29 29 28 27 25 22 20 19 22 24 23 22 23 25 26 26
3 4 6 13 11 7 7 6 3 6 9 11 13 14 15 15 16 18 19 22 25 25 26 27 26 27 27 28 28 28 26 23 21 23 23 20 19 22 23 24 24 25 27 32
1 7 11 8 6 11 7 5 7 10 12 12 14 15 16 17 17 19 22 23 23 25 26 27 27 27 26 25 26 25 23 21 22 25 21 21 21 23 25 23 23 28 31 31
3 12 5 7 12 6 7 10 11 14 14 13 14 16 17 18 20 23 24 24 25 24 24 25 26 26 24 22 21 21 21 22 24 24 22 22 24 29 25 24 23 24 23 24
8 15 13 10 10 4 9 9 12 14 15 17 16 17 19 22 23 24 23 24 24 23 24 24 25 24 20 18 18 16 21 21 25 23 22 23 27 30 32 32 24 22 21 22
14 14 11 10 4 5 9 12 18 18 17 16 17 18 21 23 23 22 23 24 24 23 23 23 22 20 17 16 17 17 20 21 23 20 20 22 27 32 27 28 27 27 23 23
10 10 11 6 3 10 16 20 22 21 18 17 16 18 20 23 23 23 23 22 23 23 22 21 20 17 17 16 16 18 19 22 20 22 22 20 32 26 25 24 24 26 28 27
9 9 3 7 14 18 21 21 20 17 16 17 20 20 20 21 23 23 22 21 24 24 21 20 19 19 17 14 16 20 18 17 19 19 20 30 26 24 22 23 24 25 27 26
6 3 14 18 21 21 20 17 15 15 16 17 18 19 20 21 22 21 21 20 20 20 18 18 21 19 17 20 19 18 17 18 21 22 22 30 23 21 22 23 23 25 25 24
7 8 11 16 17 16 16 15 15 15 16 18 19 19 20 20 22 23 23 22 21 20 17 19 19 20 22 20 19 18 15 23 24 23 27 26 21 20 21 20 22 24 25 23
12 13 14 13 12 11 12 13 13 14 15 16 18 20 20 19 21 23 23 23 23 24 23 20 21 22 23 21 18 16 18 26 23 21 28 22 19 19 19 19 21 23 23 23
6 9 10 8 8 8 9 10 11 11 12 15 17 18 19 20 21 22 23 25 21 23 22 23 23 25 24 18 13 18 21 23 19 28 26 20 19 19 17 18 20 21 22 23
9 8 8 8 7 7 8 10 12 13 15 17 18 19 22 24 24 26 27 29 25 22 22 23 26 28 20 18 22 24 22 18 26 26 22 19 17 17 15 17 18 20 22 23
11 10 9 9 10 10 11 12 14 16 17 18 18 19 22 24 26 26 25 25 27 24 24 29 29 23 25 24 24 25 19 24 24 21 20 17 16 15 15 17 19 20 21 23
10 9 9 9 10 11 12 14 16 17 18 18 20 20 21 23 24 26 30 26 26 27 29 29 26 26 25 25 24 25 23 19 19 18 18 16 14 13 15 18 20 21 22 23
9 9 10 10 10 11 14 16 18 18 19 20 20 20 22 24 25 21 26 27 28 27 28 28 26 26 24 25 22 17 16 16 17 17 16 14 14 13 15 18 21 20 21 22
12 13 12 13 15 17 17 18 19 20 22 22 22 21 20 19 22 28 28 28 26 25 27 25 24 24 21 19 17 15 14 14 16 17 17 15 13 13 14 18 20 20 22 21
13 12 12 14 16 17 18 17 18 20 20 23 23 23 23 25 25 25 26 22 23 24 26 25 24 23 22 19 16 15 14 14 17 16 14 13 11 11 15 17 18 16 19 22
15 13 12 13 14 15 15 15 18 20 22 23 24 24 27 24 23 24 21 22 24 26 24 23 21 20 18 17 14 13 13 13 14 13 12 11 10 12 15 15 16 20 21 22
Wind_Direction
247 258 255 264 254 225 222 246 248 270 268 92 108 99 349 343 345 328 343 28 90 79 39 17 5 358 353 340 326 319 316 314 312 308 304 300 299 298 296 295 295 295 295 293
257 237 252 260 254 250 251 255 259 270 277 140 317 342 348 353 347 328 16 100 67 22 30 31 7 345 336 329 326 323 319 316 311 307 305 302 301 298 296 295 294 292 290 290
277 203 313 265 229 229 167 113 270 206 108 297 304 337 336 343 352 18 116 89 41 49 23 359 352 342 334 329 325 322 320 317 313 309 305 304 303 301 300 299 296 295 293 292
280 117 260 265 311 142 108 91 87 93 106 242 319 336 34 41 94 109 99 65 13 332 322 329 334 332 329 327 324 322 320 317 315 312 309 306 302 300 302 302 299 297 295 295
239 213 341 221 139 171 138 163 104 134 305 335 309 22 63 78 92 104 48 334 317 316 313 315 321 322 321 320 321 322 320 318 316 314 310 308 307 307 304 301 300 300 302 302
162 240 244 204 147 68 91 159 68 115 137 70 37 74 251 255 312 321 325 327 321 317 311 314 321 321 319 320 322 321 321 319 316 315 312 308 307 307 303 302 301 300 297 295
242 275 254 182 72 81 178 175 161 140 90 46 72 136 331 324 330 335 332 332 327 318 320 324 323 318 318 322 322 320 318 316 317 315 311 310 309 309 307 308 305 302 303 305
82 247 269 103 74 206 119 149 152 95 44 0 340 333 325 322 325 324 320 318 315 314 315 318 319 320 322 321 320 317 316 317 319 319 318 318 318 318 316 313 311 311 313 313
197 221 148 117 129 129 126 120 138 211 4 337 323 318 319 318 318 316 317 317 313 311 314 318 321 321 319 322 319 319 322 325 326 327 327 325 323 318 317 318 317 316 316 316
329 115 123 109 113 115 109 89 49 7 349 326 318 323 318 315 316 317 318 317 316 317 319 323 325 326 326 323 321 321 323 327 330 329 327 324 325 328 325 324 321 319 317 316
73 102 118 170 170 147 117 62 13 352 336 329 326 324 319 318 320 320 320 321 321 323 321 325 326 328 329 322 319 319 321 326 330 329 329 331 330 330 326 323 317 311 309 310
242 162 123 165 155 121 34 0 345 341 338 334 325 323 321 318 321 322 324 326 321 320 321 324 326 329 325 317 314 317 321 325 327 329 328 330 329 329 328 324 314 308 306 306
159 162 152 131 132 42 354 349 337 338 333 331 327 322 318 319 322 323 321 319 317 322 324 324 324 328 319 315 312 313 321 324 324 324 324 326 330 331 323 320 322 322 322 316
156 150 116 112 88 8 4 349 341 337 328 324 321 319 316 316 318 320 322 321 318 322 323 323 325 328 318 312 310 311 317 318 321 321 322 325 328 320 319 322 326 330 334 329
129 132 128 116 11 359 349 334 330 330 325 320 318 317 317 317 319 323 324 320 317 322 322 322 324 327 321 308 306 311 317 319 326 325 323 311 319 321 324 326 327 331 334 334
153 159 110 349 350 343 332 329 328 327 323 319 319 320 320 319 320 322 322 322 322 326 326 324 325 327 328 320 312 312 315 322 322 317 308 318 323 324 326 328 331 332 333 335
144 12 350 341 337 327 332 329 324 322 322 320 320 321 321 322 321 323 324 326 324 326 325 321 325 331 335 325 316 313 315 321 324 312 308 322 321 324 327 326 329 333 335 335
30 353 335 324 316 321 324 324 324 326 325 324 322 325 327 330 330 331 330 331 329 328 331 327 328 335 322 317 310 306 311 323 323 308 315 321 321 321 321 326 331 336 338 336
9 343 319 313 313 319 323 316 323 329 331 330 330 333 332 332 331 330 329 333 336 332 334 333 333 323 322 320 313 304 320 334 313 303 321 319 316 322 323 327 334 339 341 340
327 319 313 315 315 316 318 316 326 328 329 329 331 332 333 335 334 333 333 331 337 328 330 331 325 319 324 325 325 324 321 322 301 316 318 318 314 318 322 328 331 337 341 343
316 312 310 314 325 327 325 331 328 333 337 334 332 332 329 331 333 333 331 328 333 329 325 317 322 322 326 329 328 314 312 302 309 315 314 315 314 317 321 330 336 341 346 346
313 317 318 319 319 327 332 330 329 329 330 330 330 329 326 325 325 326 327 325 323 326 320 316 314 326 322 315 309 307 302 303 309 310 312 312 313 316 321 329 332 336 339 340
300 303 305 308 314 324 323 322 322 326 328 327 329 329 326 324 323 325 323 327 322 318 315 314 316 313 314 307 299 297 298 301 307 309 311 310 311 313 320 327 328 329 333 338
314 314 315 311 313 315 320 326 326 328 328 329 329 330 328 326 322 328 324 320 319 320 314 312 315 312 312 295 291 295 296 304 309 308 309 307 307 310 320 323 328 331 333 338
334 338 335 330 333 333 330 328 329 331 332 333 334 336 335 334 330 327 323 323 324 323 320 320 317 311 309 301 294 299 301 306 309 312 307 306 302 309 320 328 332 334 340 342
327 342 331 325 327 327 332 339 339 336 335 335 340 340 338 330 326 325 330 330 328 326 322 320 321 320 312 305 295 298 299 305 305 303 301 302 299 309 323 333 338 342 340 341
321 327 325 322 332 337 346 341 339 341 340 337 344 329 326 329 330 333 334 333 334 333 332 333 336 332 326 314 302 302 301 304 302 301 301 300 299 309 324 330 336 339 340 342